Tracking 19146 objects as of 23-Apr-2018
HD Live streaming from Space Station
objects crossing your sky now

FENGYUN 1C DEB

Track FENGYUN 1C DEB now!
10-day predictions


NORAD ID: 31966
Int'l Code: 1999-025CNT
Perigee: 658.3 km
Apogee: 832.6 km
Inclination: 99.0 °
Period: 99.6 minutes
Semi major axis: 7116 km
RCS: 0.0117 m2 (small)
Launch date: May 10, 1999
Source: People's Republic of China (PRC)
Launch site: Taiyaun Space Center, China (TSC)

Note: This is SATELLITE DEBRIS
aabbcc
Your satellite tracking list
Your tracking list is empty




NASA's NSSDC Master Catalog

Two Line Element Set (TLE):
1 31966U 99025CNT 18113.54826732  .00000403  00000-0  11707-3 0  9997
2 31966  98.9792  30.4601 0122493  12.8722 347.5548 14.46130339569514
Source of the keplerian elements: AFSPC